Time,TemperatureF,DewpointF,PressureIn,WindDirection,WindDirectionDegrees,WindSpeedMPH,WindSpeedGustMPH,Humidity,HourlyPrecipIn,Conditions,Clouds,dailyrainin,SoftwareType,DateUTC
2013-07-24 00:03:00,77.0,74.2,29.32,East,90,0.0,0.0,89,0.00,,,0.00,fowsr,2013-07-24 04:03:00,
2013-07-24 00:08:00,76.8,74.3,29.32,East,90,0.0,0.0,90,0.00,,,0.00,fowsr,2013-07-24 04:08:00,
2013-07-24 00:13:00,76.5,73.9,29.33,East,90,0.0,0.0,90,0.00,,,0.00,fowsr,2013-07-24 04:13:00,
2013-07-24 00:18:00,76.6,74.4,29.33,East,90,0.0,0.7,91,0.00,,,0.00,fowsr,2013-07-24 04:18:00,
2013-07-24 00:23:00,76.5,74.2,29.32,East,90,0.0,0.0,91,0.00,,,0.00,fowsr,2013-07-24 04:23:00,
2013-07-24 00:28:00,76.5,74.2,29.32,East,90,0.0,0.0,91,0.00,,,0.00,fowsr,2013-07-24 04:28:00,
2013-07-24 00:33:00,76.3,74.0,29.32,East,90,0.0,0.0,91,0.00,,,0.00,fowsr,2013-07-24 04:33:00,
2013-07-24 00:38:00,76.3,74.0,29.32,East,90,0.0,0.0,91,0.00,,,0.00,fowsr,2013-07-24 04:38:00,
2013-07-24 00:43:00,76.1,73.9,29.32,East,90,0.0,0.0,91,0.00,,,0.00,fowsr,2013-07-24 04:43:00,
2013-07-24 00:48:00,75.9,73.7,29.32,East,90,0.0,0.0,91,0.00,,,0.00,fowsr,2013-07-24 04:48:00,
2013-07-24 00:53:00,75.9,73.7,29.32,East,90,0.0,0.0,91,0.00,,,0.00,fowsr,2013-07-24 04:53:00,
2013-07-24 00:58:00,75.9,73.7,29.32,East,90,0.0,0.0,91,0.00,,,0.00,fowsr,2013-07-24 04:58:00,
2013-07-24 01:03:00,75.7,73.5,29.32,East,90,0.0,0.0,91,0.00,,,0.00,fowsr,2013-07-24 05:03:00,
2013-07-24 01:08:00,75.7,73.5,29.32,East,90,0.0,0.0,91,0.00,,,0.00,fowsr,2013-07-24 05:08:00,
2013-07-24 01:13:00,75.7,73.5,29.32,East,90,0.0,0.0,91,0.00,,,0.00,fowsr,2013-07-24 05:13:00,
2013-07-24 01:18:00,75.6,73.3,29.32,East,90,0.0,0.0,91,0.00,,,0.00,fowsr,2013-07-24 05:18:00,
2013-07-24 01:23:00,75.6,73.3,29.32,East,90,0.0,0.0,91,0.00,,,0.00,fowsr,2013-07-24 05:23:00,
2013-07-24 01:28:00,75.4,73.4,29.32,East,90,0.0,0.0,92,0.00,,,0.00,fowsr,2013-07-24 05:28:00,
2013-07-24 01:33:00,75.4,73.4,29.32,East,90,0.0,0.0,92,0.00,,,0.00,fowsr,2013-07-24 05:33:00,
2013-07-24 01:38:00,75.4,73.4,29.32,East,90,0.0,0.0,92,0.00,,,0.00,fowsr,2013-07-24 05:38:00,
2013-07-24 01:43:00,75.2,73.2,29.32,East,90,0.0,0.0,92,0.00,,,0.00,fowsr,2013-07-24 05:43:00,
2013-07-24 01:48:00,75.0,73.3,29.32,East,90,0.0,0.7,93,0.00,,,0.00,fowsr,2013-07-24 05:48:00,
2013-07-24 01:53:00,75.0,73.3,29.32,East,90,0.0,0.0,93,0.00,,,0.00,fowsr,2013-07-24 05:53:00,
2013-07-24 01:58:00,75.0,73.3,29.32,East,90,0.0,0.0,93,0.00,,,0.00,fowsr,2013-07-24 05:58:00,
2013-07-24 02:03:00,75.0,73.3,29.32,East,90,0.0,0.0,93,0.00,,,0.00,fowsr,2013-07-24 06:03:00,
2013-07-24 02:08:00,75.0,73.3,29.31,East,90,0.0,0.0,93,0.00,,,0.00,fowsr,2013-07-24 06:08:00,
2013-07-24 02:13:00,74.8,73.1,29.31,East,90,0.0,0.0,93,0.00,,,0.00,fowsr,2013-07-24 06:13:00,
2013-07-24 02:18:00,74.8,73.1,29.31,East,90,0.0,0.0,93,0.00,,,0.00,fowsr,2013-07-24 06:18:00,
2013-07-24 02:23:00,74.7,73.2,29.31,East,90,0.0,0.0,94,0.00,,,0.00,fowsr,2013-07-24 06:23:00,
2013-07-24 02:28:00,74.7,73.2,29.31,East,90,0.0,0.0,94,0.00,,,0.00,fowsr,2013-07-24 06:28:00,
2013-07-24 02:33:00,74.7,73.2,29.30,East,90,0.0,0.0,94,0.00,,,0.00,fowsr,2013-07-24 06:33:00,
2013-07-24 02:38:00,74.5,73.0,29.30,East,90,0.0,0.0,94,0.00,,,0.00,fowsr,2013-07-24 06:38:00,
2013-07-24 02:43:00,74.5,73.0,29.30,East,90,0.0,0.0,94,0.00,,,0.00,fowsr,2013-07-24 06:43:00,
2013-07-24 02:48:00,74.5,73.0,29.30,East,90,0.0,0.0,94,0.00,,,0.00,fowsr,2013-07-24 06:48:00,
2013-07-24 02:53:00,74.3,72.8,29.30,East,90,0.0,0.0,94,0.00,,,0.00,fowsr,2013-07-24 06:53:00,
2013-07-24 02:58:00,74.3,72.8,29.30,East,90,0.0,0.0,94,0.00,,,0.00,fowsr,2013-07-24 06:58:00,
2013-07-24 03:03:00,74.3,72.8,29.30,East,90,0.0,0.0,94,0.00,,,0.00,fowsr,2013-07-24 07:03:00,
2013-07-24 03:08:00,74.3,72.8,29.29,East,90,0.0,0.0,94,0.00,,,0.00,fowsr,2013-07-24 07:08:00,
2013-07-24 03:13:00,74.1,72.7,29.29,East,90,0.0,0.0,94,0.00,,,0.00,fowsr,2013-07-24 07:13:00,
2013-07-24 03:18:00,74.1,72.7,29.29,East,90,0.0,0.0,94,0.00,,,0.00,fowsr,2013-07-24 07:18:00,
2013-07-24 03:23:00,74.1,72.7,29.29,East,90,0.0,0.0,94,0.00,,,0.00,fowsr,2013-07-24 07:23:00,
2013-07-24 03:28:00,73.9,72.5,29.29,East,90,0.0,0.0,94,0.00,,,0.00,fowsr,2013-07-24 07:28:00,
2013-07-24 03:33:00,73.8,72.3,29.29,East,90,0.0,0.0,94,0.00,,,0.00,fowsr,2013-07-24 07:33:00,
2013-07-24 03:38:00,73.8,72.3,29.29,East,90,0.0,0.0,94,0.00,,,0.00,fowsr,2013-07-24 07:38:00,
2013-07-24 03:43:00,73.8,72.6,29.28,East,90,0.0,0.0,95,0.00,,,0.00,fowsr,2013-07-24 07:43:00,
2013-07-24 03:48:00,73.6,72.4,29.29,East,90,0.0,0.0,95,0.00,,,0.00,fowsr,2013-07-24 07:48:00,
2013-07-24 03:53:00,73.6,72.4,29.29,East,90,0.0,0.0,95,0.00,,,0.00,fowsr,2013-07-24 07:53:00,
2013-07-24 03:58:00,73.4,72.2,29.29,East,90,0.0,0.0,95,0.00,,,0.00,fowsr,2013-07-24 07:58:00,
2013-07-24 04:03:00,73.4,72.2,29.28,East,90,0.0,0.0,95,0.00,,,0.00,fowsr,2013-07-24 08:03:00,
2013-07-24 04:08:00,73.2,71.8,29.28,East,90,0.0,0.0,94,0.00,,,0.00,fowsr,2013-07-24 08:08:00,
2013-07-24 04:13:00,73.2,71.8,29.28,East,90,0.0,0.0,94,0.00,,,0.00,fowsr,2013-07-24 08:13:00,
2013-07-24 04:18:00,73.0,71.6,29.28,East,90,0.0,0.0,94,0.00,,,0.00,fowsr,2013-07-24 08:18:00,
2013-07-24 04:23:00,73.0,71.6,29.28,East,90,0.0,0.0,94,0.00,,,0.00,fowsr,2013-07-24 08:23:00,
2013-07-24 04:28:00,73.0,71.6,29.28,East,90,0.0,0.0,94,0.00,,,0.00,fowsr,2013-07-24 08:28:00,
2013-07-24 04:33:00,72.9,71.7,29.28,East,90,0.0,0.0,95,0.00,,,0.00,fowsr,2013-07-24 08:33:00,
2013-07-24 04:38:00,72.9,71.7,29.28,East,90,0.0,0.0,95,0.00,,,0.00,fowsr,2013-07-24 08:38:00,
2013-07-24 04:43:00,72.9,71.7,29.28,East,90,0.0,0.0,95,0.00,,,0.00,fowsr,2013-07-24 08:43:00,
2013-07-24 04:48:00,72.7,71.5,29.27,East,90,0.0,0.0,95,0.00,,,0.00,fowsr,2013-07-24 08:48:00,
2013-07-24 04:53:00,72.7,71.5,29.27,East,90,0.0,0.0,95,0.00,,,0.00,fowsr,2013-07-24 08:53:00,
2013-07-24 04:58:00,72.5,71.3,29.28,East,90,0.0,0.0,95,0.00,,,0.00,fowsr,2013-07-24 08:58:00,
2013-07-24 05:03:00,72.5,71.3,29.28,East,90,0.0,0.0,95,0.00,,,0.00,fowsr,2013-07-24 09:03:00,
2013-07-24 05:08:00,72.3,71.1,29.28,East,90,0.0,0.0,95,0.00,,,0.00,fowsr,2013-07-24 09:08:00,
2013-07-24 05:13:00,72.3,71.1,29.28,East,90,0.0,0.0,95,0.00,,,0.00,fowsr,2013-07-24 09:13:00,
2013-07-24 05:18:00,72.3,71.1,29.28,East,90,0.0,0.0,95,0.00,,,0.00,fowsr,2013-07-24 09:18:00,
2013-07-24 05:23:00,72.1,70.9,29.28,East,90,0.0,0.0,95,0.00,,,0.00,fowsr,2013-07-24 09:23:00,
2013-07-24 05:28:00,72.1,70.9,29.28,East,90,0.0,0.0,95,0.00,,,0.00,fowsr,2013-07-24 09:28:00,
2013-07-24 05:33:00,72.1,70.9,29.28,East,90,0.0,0.0,95,0.00,,,0.00,fowsr,2013-07-24 09:33:00,
2013-07-24 05:38:00,72.1,70.9,29.29,East,90,0.0,0.0,95,0.00,,,0.00,fowsr,2013-07-24 09:38:00,
2013-07-24 05:43:00,72.1,70.9,29.29,East,90,0.0,0.0,95,0.00,,,0.00,fowsr,2013-07-24 09:43:00,
2013-07-24 05:48:00,72.1,71.2,29.29,East,90,0.0,0.0,96,0.00,,,0.00,fowsr,2013-07-24 09:48:00,
2013-07-24 05:53:00,72.1,71.2,29.29,East,90,0.0,0.0,96,0.00,,,0.00,fowsr,2013-07-24 09:53:00,
2013-07-24 05:58:00,72.0,71.0,29.29,East,90,0.0,0.0,96,0.00,,,0.00,fowsr,2013-07-24 09:58:00,
2013-07-24 06:03:00,72.0,71.0,29.29,East,90,0.0,0.0,96,0.00,,,0.00,fowsr,2013-07-24 10:03:00,
2013-07-24 06:08:00,72.0,71.0,29.29,East,90,0.0,0.0,96,0.00,,,0.00,fowsr,2013-07-24 10:08:00,
2013-07-24 06:13:00,72.0,71.0,29.30,East,90,0.0,0.0,96,0.00,,,0.00,fowsr,2013-07-24 10:13:00,
2013-07-24 06:18:00,72.0,71.0,29.30,East,90,0.0,0.0,96,0.00,,,0.00,fowsr,2013-07-24 10:18:00,
2013-07-24 06:23:00,72.0,71.0,29.30,East,90,0.0,0.0,96,0.00,,,0.00,fowsr,2013-07-24 10:23:00,
2013-07-24 06:28:00,72.0,71.0,29.30,East,90,0.0,0.0,96,0.00,,,0.00,fowsr,2013-07-24 10:28:00,
2013-07-24 06:33:00,72.0,71.0,29.30,East,90,0.0,0.0,96,0.00,,,0.00,fowsr,2013-07-24 10:33:00,
2013-07-24 06:38:00,71.8,70.8,29.30,East,90,0.0,0.0,96,0.00,,,0.00,fowsr,2013-07-24 10:38:00,
2013-07-24 06:43:00,71.8,70.8,29.31,East,90,0.0,0.0,96,0.00,,,0.00,fowsr,2013-07-24 10:43:00,
2013-07-24 06:48:00,71.6,70.7,29.31,East,90,0.0,0.0,96,0.00,,,0.00,fowsr,2013-07-24 10:48:00,
2013-07-24 06:53:00,71.6,70.9,29.31,East,90,0.0,0.0,97,0.00,,,0.00,fowsr,2013-07-24 10:53:00,
2013-07-24 06:58:00,71.6,70.9,29.31,East,90,0.0,0.0,97,0.00,,,0.00,fowsr,2013-07-24 10:58:00,
2013-07-24 07:03:00,71.6,70.9,29.32,East,90,0.0,0.0,97,0.00,,,0.00,fowsr,2013-07-24 11:03:00,
2013-07-24 07:08:00,71.6,70.9,29.32,East,90,0.0,0.0,97,0.00,,,0.00,fowsr,2013-07-24 11:08:00,
2013-07-24 07:13:00,71.6,70.9,29.32,East,90,0.0,0.0,97,0.00,,,0.00,fowsr,2013-07-24 11:13:00,
2013-07-24 07:18:00,71.6,70.9,29.32,East,90,0.0,0.7,97,0.00,,,0.00,fowsr,2013-07-24 11:18:00,
2013-07-24 07:23:00,71.8,71.1,29.32,East,90,0.0,0.0,97,0.00,,,0.00,fowsr,2013-07-24 11:23:00,
2013-07-24 07:28:00,72.0,71.3,29.32,East,90,0.0,0.0,97,0.00,,,0.00,fowsr,2013-07-24 11:28:00,
2013-07-24 07:33:00,72.0,71.3,29.32,East,90,0.0,0.7,97,0.00,,,0.00,fowsr,2013-07-24 11:33:00,
2013-07-24 07:38:00,72.0,71.3,29.32,East,90,0.0,0.0,97,0.00,,,0.00,fowsr,2013-07-24 11:38:00,
2013-07-24 07:43:00,72.3,71.6,29.32,East,90,0.0,0.7,97,0.00,,,0.00,fowsr,2013-07-24 11:43:00,
2013-07-24 07:48:00,72.7,72.0,29.32,SE,135,0.7,1.6,97,0.00,,,0.00,fowsr,2013-07-24 11:48:00,
2013-07-24 07:53:00,72.9,72.1,29.32,SE,135,0.0,0.0,97,0.00,,,0.00,fowsr,2013-07-24 11:53:00,
2013-07-24 07:58:00,73.0,72.3,29.33,SE,135,0.0,0.0,97,0.00,,,0.00,fowsr,2013-07-24 11:58:00,
2013-07-24 08:03:00,73.2,72.5,29.32,SE,135,0.0,0.0,97,0.00,,,0.00,fowsr,2013-07-24 12:03:00,
2013-07-24 08:08:00,73.6,72.9,29.33,SE,135,0.0,0.7,97,0.00,,,0.00,fowsr,2013-07-24 12:08:00,
2013-07-24 08:13:00,73.8,73.0,29.33,SE,135,0.0,0.0,97,0.00,,,0.00,fowsr,2013-07-24 12:13:00,
2013-07-24 08:18:00,74.1,73.4,29.33,SE,135,0.0,0.0,97,0.00,,,0.00,fowsr,2013-07-24 12:18:00,
2013-07-24 08:23:00,74.7,73.9,29.33,SE,135,0.0,0.0,97,0.00,,,0.00,fowsr,2013-07-24 12:23:00,
2013-07-24 08:28:00,74.8,73.9,29.33,SE,135,0.0,0.0,96,0.00,,,0.00,fowsr,2013-07-24 12:28:00,
2013-07-24 08:33:00,75.2,74.0,29.33,SE,135,0.0,0.7,95,0.00,,,0.00,fowsr,2013-07-24 12:33:00,
2013-07-24 08:38:00,75.6,74.1,29.33,SE,135,0.0,0.0,94,0.00,,,0.00,fowsr,2013-07-24 12:38:00,
2013-07-24 08:43:00,76.3,74.5,29.33,SE,135,0.7,1.6,93,0.00,,,0.00,fowsr,2013-07-24 12:43:00,
2013-07-24 08:48:00,76.6,74.9,29.34,SE,135,0.0,0.0,93,0.00,,,0.00,fowsr,2013-07-24 12:48:00,
2013-07-24 08:53:00,77.0,74.7,29.34,SE,135,0.0,0.0,91,0.00,,,0.00,fowsr,2013-07-24 12:53:00,
2013-07-24 08:58:00,77.4,75.1,29.34,SE,135,0.0,0.0,91,0.00,,,0.00,fowsr,2013-07-24 12:58:00,
2013-07-24 09:03:00,77.7,75.2,29.35,SE,135,0.0,0.0,90,0.00,,,0.00,fowsr,2013-07-24 13:03:00,
2013-07-24 09:08:00,78.3,75.7,29.34,SE,135,0.0,0.0,90,0.00,,,0.00,fowsr,2013-07-24 13:08:00,
2013-07-24 09:13:00,78.8,76.0,29.35,SE,135,0.0,0.0,89,0.00,,,0.00,fowsr,2013-07-24 13:13:00,
2013-07-24 09:18:00,79.3,76.0,29.35,SE,135,0.0,2.2,87,0.00,,,0.00,fowsr,2013-07-24 13:18:00,
2013-07-24 09:23:00,80.2,76.3,29.35,South,180,0.0,0.0,85,0.00,,,0.00,fowsr,2013-07-24 13:23:00,
2013-07-24 09:28:00,80.8,76.0,29.35,SE,135,0.0,0.7,82,0.00,,,0.00,fowsr,2013-07-24 13:28:00,
2013-07-24 09:33:00,81.5,76.4,29.35,SE,135,0.0,0.7,81,0.00,,,0.00,fowsr,2013-07-24 13:33:00,
2013-07-24 09:38:00,82.2,76.8,29.35,SE,135,0.0,0.7,80,0.00,,,0.00,fowsr,2013-07-24 13:38:00,
2013-07-24 09:43:00,83.1,77.3,29.34,SE,135,0.0,0.0,79,0.00,,,0.00,fowsr,2013-07-24 13:43:00,
2013-07-24 09:48:00,83.7,76.9,29.34,SE,135,0.0,0.0,76,0.00,,,0.00,fowsr,2013-07-24 13:48:00,
2013-07-24 09:53:00,84.2,76.4,29.34,SE,135,0.0,0.0,73,0.00,,,0.00,fowsr,2013-07-24 13:53:00,
2013-07-24 09:58:00,84.7,76.6,29.33,SE,135,0.0,0.0,72,0.00,,,0.00,fowsr,2013-07-24 13:58:00,
2013-07-24 10:08:00,86.2,77.0,29.33,SE,135,0.0,0.0,69,0.00,,,0.00,fowsr,2013-07-24 14:08:00,
2013-07-24 10:13:00,86.9,77.3,29.33,SE,135,0.0,0.0,68,0.00,,,0.00,fowsr,2013-07-24 14:13:00,
2013-07-24 10:18:00,87.3,77.3,29.33,South,180,0.0,0.0,67,0.00,,,0.00,fowsr,2013-07-24 14:18:00,
2013-07-24 10:23:00,87.6,76.9,29.34,South,180,0.0,0.0,65,0.00,,,0.00,fowsr,2013-07-24 14:23:00,
2013-07-24 10:28:00,88.0,77.2,29.34,South,180,0.0,0.0,65,0.00,,,0.00,fowsr,2013-07-24 14:28:00,
2013-07-24 10:33:00,88.5,77.3,29.34,South,180,0.0,0.0,64,0.00,,,0.00,fowsr,2013-07-24 14:33:00,
2013-07-24 10:38:00,88.7,77.1,29.34,East,90,0.0,0.7,63,0.00,,,0.00,fowsr,2013-07-24 14:38:00,
2013-07-24 10:43:00,89.2,77.2,29.34,East,90,0.0,0.0,62,0.00,,,0.00,fowsr,2013-07-24 14:43:00,
2013-07-24 10:48:00,89.4,77.4,29.33,East,90,0.0,0.7,62,0.00,,,0.00,fowsr,2013-07-24 14:48:00,
2013-07-24 10:53:00,89.6,77.2,29.33,SE,135,0.0,0.0,61,0.00,,,0.00,fowsr,2013-07-24 14:53:00,
2013-07-24 10:58:00,89.2,77.6,29.33,SE,135,0.0,0.0,63,0.00,,,0.00,fowsr,2013-07-24 14:58:00,
2013-07-24 11:03:00,89.1,77.1,29.33,SE,135,0.0,0.7,62,0.00,,,0.00,fowsr,2013-07-24 15:03:00,
2013-07-24 11:08:00,88.5,76.2,29.34,West,270,0.0,1.6,61,0.00,,,0.00,fowsr,2013-07-24 15:08:00,
2013-07-24 11:13:00,88.3,76.0,29.33,SE,135,0.0,0.7,61,0.00,,,0.00,fowsr,2013-07-24 15:13:00,
2013-07-24 11:18:00,88.5,76.2,29.33,North,0,0.0,0.0,61,0.00,,,0.00,fowsr,2013-07-24 15:18:00,
2013-07-24 11:23:00,88.7,76.4,29.34,North,0,0.0,0.0,61,0.00,,,0.00,fowsr,2013-07-24 15:23:00,
2013-07-24 11:28:00,88.7,76.4,29.34,South,180,0.0,0.0,61,0.00,,,0.00,fowsr,2013-07-24 15:28:00,
2013-07-24 11:33:00,88.7,76.7,29.33,South,180,0.0,0.7,62,0.00,,,0.00,fowsr,2013-07-24 15:33:00,
2013-07-24 11:38:00,88.7,76.7,29.34,South,180,0.0,0.0,62,0.00,,,0.00,fowsr,2013-07-24 15:38:00,
2013-07-24 11:48:00,88.5,76.6,29.34,ESE,112,0.0,0.7,62,0.00,,,0.00,fowsr,2013-07-24 15:48:00,
2013-07-24 11:53:00,88.5,76.2,29.34,ESE,112,0.0,0.0,61,0.00,,,0.00,fowsr,2013-07-24 15:53:00,
2013-07-24 11:58:00,88.7,76.0,29.34,SE,135,0.0,0.0,60,0.00,,,0.00,fowsr,2013-07-24 15:58:00,
2013-07-24 12:03:00,88.5,75.4,29.34,SE,135,0.0,0.0,59,0.00,,,0.00,fowsr,2013-07-24 16:03:00,
2013-07-24 12:08:00,88.7,76.0,29.34,SE,135,0.0,0.0,60,0.00,,,0.00,fowsr,2013-07-24 16:08:00,
2013-07-24 12:13:00,88.5,75.4,29.34,SE,135,0.0,0.0,59,0.00,,,0.00,fowsr,2013-07-24 16:13:00,
2013-07-24 12:18:00,88.7,75.6,29.33,SE,135,0.0,0.7,59,0.00,,,0.00,fowsr,2013-07-24 16:18:00,
2013-07-24 12:23:00,88.9,75.7,29.34,SE,135,0.0,0.0,59,0.00,,,0.00,fowsr,2013-07-24 16:23:00,
2013-07-24 12:28:00,89.1,75.1,29.33,SE,135,0.0,0.7,57,0.00,,,0.00,fowsr,2013-07-24 16:28:00,
2013-07-24 12:33:00,89.2,76.1,29.33,SE,135,0.0,0.7,59,0.00,,,0.00,fowsr,2013-07-24 16:33:00,
2013-07-24 12:38:00,89.2,74.8,29.33,NW,315,0.0,0.0,56,0.00,,,0.00,fowsr,2013-07-24 16:38:00,
2013-07-24 12:43:00,89.4,75.0,29.33,SW,225,0.0,0.7,56,0.00,,,0.00,fowsr,2013-07-24 16:43:00,
2013-07-24 12:48:00,89.6,74.7,29.33,South,180,0.0,1.6,55,0.00,,,0.00,fowsr,2013-07-24 16:48:00,
2013-07-24 12:53:00,90.0,75.0,29.33,SE,135,0.7,1.6,55,0.00,,,0.00,fowsr,2013-07-24 16:53:00,
2013-07-24 12:58:00,90.3,74.5,29.33,SE,135,0.7,1.6,53,0.00,,,0.00,fowsr,2013-07-24 16:58:00,
2013-07-24 13:03:00,90.5,75.1,29.33,SE,135,0.0,0.7,54,0.00,,,0.00,fowsr,2013-07-24 17:03:00,
2013-07-24 13:08:00,90.5,74.2,29.32,East,90,0.0,0.7,52,0.00,,,0.00,fowsr,2013-07-24 17:08:00,
2013-07-24 13:13:00,90.7,74.8,29.32,East,90,0.0,1.6,53,0.00,,,0.00,fowsr,2013-07-24 17:13:00,
2013-07-24 13:18:00,90.9,74.5,29.32,SW,225,0.0,0.7,52,0.00,,,0.00,fowsr,2013-07-24 17:18:00,
2013-07-24 13:23:00,90.5,74.2,29.32,SW,225,0.0,0.0,52,0.00,,,0.00,fowsr,2013-07-24 17:23:00,
2013-07-24 13:28:00,90.7,74.8,29.33,East,90,0.0,0.0,53,0.00,,,0.00,fowsr,2013-07-24 17:28:00,
2013-07-24 13:33:00,90.9,74.1,29.33,SE,135,1.6,3.1,51,0.00,,,0.00,fowsr,2013-07-24 17:33:00,
2013-07-24 13:38:00,91.0,74.7,29.32,SE,135,0.0,0.0,52,0.00,,,0.00,fowsr,2013-07-24 17:38:00,
2013-07-24 13:43:00,91.2,74.8,29.32,NW,315,0.0,0.0,52,0.00,,,0.00,fowsr,2013-07-24 17:43:00,
2013-07-24 13:48:00,91.4,75.0,29.32,NW,315,0.0,0.0,52,0.00,,,0.00,fowsr,2013-07-24 17:48:00,
2013-07-24 13:53:00,91.2,75.3,29.32,NE,45,0.0,0.7,53,0.00,,,0.00,fowsr,2013-07-24 17:53:00,
2013-07-24 13:58:00,90.9,75.0,29.32,SE,135,0.0,0.0,53,0.00,,,0.00,fowsr,2013-07-24 17:58:00,
2013-07-24 14:03:00,90.7,74.8,29.32,SE,135,0.0,0.0,53,0.00,,,0.00,fowsr,2013-07-24 18:03:00,
2013-07-24 14:08:00,90.7,74.8,29.32,SE,135,0.0,1.6,53,0.00,,,0.00,fowsr,2013-07-24 18:08:00,
2013-07-24 14:13:00,90.7,74.8,29.32,SE,135,0.0,0.7,53,0.00,,,0.00,fowsr,2013-07-24 18:13:00,
2013-07-24 14:18:00,90.7,74.4,29.31,SE,135,0.7,3.1,52,0.00,,,0.00,fowsr,2013-07-24 18:18:00,
2013-07-24 14:23:00,91.0,74.2,29.31,East,90,0.7,2.2,51,0.00,,,0.00,fowsr,2013-07-24 18:23:00,
2013-07-24 14:28:00,91.2,74.4,29.31,East,90,0.0,0.7,51,0.00,,,0.00,fowsr,2013-07-24 18:28:00,
2013-07-24 14:33:00,91.4,73.6,29.31,North,0,0.0,0.7,49,0.00,,,0.00,fowsr,2013-07-24 18:33:00,
2013-07-24 14:38:00,91.4,73.1,29.31,North,0,0.0,0.7,48,0.00,,,0.00,fowsr,2013-07-24 18:38:00,
2013-07-24 14:43:00,91.4,74.1,29.31,North,0,0.0,0.0,50,0.00,,,0.00,fowsr,2013-07-24 18:43:00,
2013-07-24 14:48:00,91.4,73.1,29.30,South,180,0.7,1.6,48,0.00,,,0.00,fowsr,2013-07-24 18:48:00,
2013-07-24 14:53:00,91.8,73.4,29.30,SW,225,0.0,0.7,48,0.00,,,0.00,fowsr,2013-07-24 18:53:00,
2013-07-24 14:58:00,91.8,73.4,29.30,North,0,0.0,0.0,48,0.00,,,0.00,fowsr,2013-07-24 18:58:00,
2013-07-24 15:03:00,92.1,73.8,29.30,SW,225,0.0,0.7,48,0.00,,,0.00,fowsr,2013-07-24 19:03:00,
2013-07-24 15:08:00,92.5,74.1,29.29,SE,135,0.7,2.2,48,0.00,,,0.00,fowsr,2013-07-24 19:08:00,
2013-07-24 15:13:00,92.5,74.6,29.30,SE,135,0.0,0.7,49,0.00,,,0.00,fowsr,2013-07-24 19:13:00,
2013-07-24 15:18:00,92.5,74.6,29.29,East,90,0.0,0.0,49,0.00,,,0.00,fowsr,2013-07-24 19:18:00,
2013-07-24 15:23:00,92.1,74.2,29.29,SE,135,0.7,3.1,49,0.00,,,0.00,fowsr,2013-07-24 19:23:00,
2013-07-24 15:28:00,91.9,74.6,29.29,East,90,0.0,0.0,50,0.00,,,0.00,fowsr,2013-07-24 19:28:00,
2013-07-24 15:33:00,91.9,75.0,29.29,South,180,0.7,1.6,51,0.00,,,0.00,fowsr,2013-07-24 19:33:00,
2013-07-24 15:38:00,91.4,74.5,29.29,South,180,0.0,0.0,51,0.00,,,0.00,fowsr,2013-07-24 19:38:00,
2013-07-24 15:48:00,90.9,75.4,29.29,South,180,0.0,0.0,54,0.00,,,0.00,fowsr,2013-07-24 19:48:00,
2013-07-24 15:53:00,90.3,75.4,29.29,South,180,0.0,0.0,55,0.00,,,0.00,fowsr,2013-07-24 19:53:00,
2013-07-24 15:58:00,90.0,75.5,29.29,South,180,0.0,0.7,56,0.00,,,0.00,fowsr,2013-07-24 19:58:00,
2013-07-24 16:03:00,89.8,75.7,29.29,South,180,0.0,0.0,57,0.00,,,0.00,fowsr,2013-07-24 20:03:00,
2013-07-24 16:08:00,89.2,75.2,29.29,South,180,0.0,0.0,57,0.00,,,0.00,fowsr,2013-07-24 20:08:00,
2013-07-24 16:13:00,89.2,75.6,29.29,South,180,0.0,0.0,58,0.00,,,0.00,fowsr,2013-07-24 20:13:00,
2013-07-24 16:18:00,89.4,76.2,29.29,SE,135,0.0,0.7,59,0.00,,,0.00,fowsr,2013-07-24 20:18:00,
2013-07-24 16:23:00,89.6,75.1,29.29,SE,135,0.0,0.7,56,0.00,,,0.00,fowsr,2013-07-24 20:23:00,
2013-07-24 16:28:00,89.8,74.9,29.29,SE,135,0.0,0.0,55,0.00,,,0.00,fowsr,2013-07-24 20:28:00,
2013-07-24 16:33:00,90.1,74.3,29.30,SE,135,0.0,0.0,53,0.00,,,0.00,fowsr,2013-07-24 20:33:00,
2013-07-24 16:38:00,90.3,74.9,29.29,SE,135,0.0,0.7,54,0.00,,,0.00,fowsr,2013-07-24 20:38:00,
2013-07-24 16:43:00,90.7,75.3,29.29,SE,135,0.0,0.0,54,0.00,,,0.00,fowsr,2013-07-24 20:43:00,
2013-07-24 16:48:00,90.7,74.4,29.29,SE,135,0.0,0.7,52,0.00,,,0.00,fowsr,2013-07-24 20:48:00,
2013-07-24 16:53:00,90.9,75.4,29.29,SE,135,0.0,0.7,54,0.00,,,0.00,fowsr,2013-07-24 20:53:00,
2013-07-24 16:58:00,90.9,74.5,29.29,East,90,0.0,0.0,52,0.00,,,0.00,fowsr,2013-07-24 20:58:00,
2013-07-24 17:03:00,90.9,74.1,29.29,SE,135,0.0,0.7,51,0.00,,,0.00,fowsr,2013-07-24 21:03:00,
2013-07-24 17:08:00,90.9,74.1,29.29,SE,135,0.0,0.0,51,0.00,,,0.00,fowsr,2013-07-24 21:08:00,
2013-07-24 17:13:00,90.9,74.1,29.29,SE,135,0.0,0.7,51,0.00,,,0.00,fowsr,2013-07-24 21:13:00,
2013-07-24 17:18:00,91.0,74.7,29.30,SE,135,0.0,1.6,52,0.00,,,0.00,fowsr,2013-07-24 21:18:00,
2013-07-24 17:23:00,90.9,73.6,29.29,SE,135,0.0,1.6,50,0.00,,,0.00,fowsr,2013-07-24 21:23:00,
2013-07-24 17:28:00,90.9,74.5,29.29,SE,135,0.0,0.0,52,0.00,,,0.00,fowsr,2013-07-24 21:28:00,
2013-07-24 17:33:00,90.9,74.1,29.29,SE,135,0.0,0.0,51,0.00,,,0.00,fowsr,2013-07-24 21:33:00,
2013-07-24 17:38:00,90.9,75.0,29.29,NW,315,0.0,0.7,53,0.00,,,0.00,fowsr,2013-07-24 21:38:00,
2013-07-24 17:43:00,90.9,75.0,29.29,NE,45,0.0,0.7,53,0.00,,,0.00,fowsr,2013-07-24 21:43:00,
2013-07-24 17:48:00,90.7,73.9,29.28,East,90,0.0,0.0,51,0.00,,,0.00,fowsr,2013-07-24 21:48:00,
2013-07-24 17:53:00,90.7,74.4,29.28,East,90,0.0,0.7,52,0.00,,,0.00,fowsr,2013-07-24 21:53:00,
2013-07-24 17:58:00,90.5,74.2,29.29,East,90,0.0,0.0,52,0.00,,,0.00,fowsr,2013-07-24 21:58:00,
2013-07-24 18:03:00,90.5,74.6,29.29,East,90,0.0,0.0,53,0.00,,,0.00,fowsr,2013-07-24 22:03:00,
2013-07-24 18:08:00,89.8,74.9,29.28,East,90,0.0,0.0,55,0.00,,,0.00,fowsr,2013-07-24 22:08:00,
2013-07-24 18:13:00,89.4,75.8,29.28,SE,135,0.0,0.0,58,0.00,,,0.00,fowsr,2013-07-24 22:13:00,
2013-07-24 18:18:00,88.9,75.7,29.28,SE,135,0.0,0.0,59,0.00,,,0.00,fowsr,2013-07-24 22:18:00,
2013-07-24 18:23:00,88.3,75.6,29.28,SE,135,0.0,0.0,60,0.00,,,0.00,fowsr,2013-07-24 22:23:00,
2013-07-24 18:28:00,88.2,75.9,29.28,SE,135,0.0,0.0,61,0.00,,,0.00,fowsr,2013-07-24 22:28:00,
2013-07-24 18:33:00,87.8,75.9,29.28,SE,135,0.0,0.0,62,0.00,,,0.00,fowsr,2013-07-24 22:33:00,
2013-07-24 18:38:00,87.6,76.5,29.29,SE,135,0.0,0.0,64,0.00,,,0.00,fowsr,2013-07-24 22:38:00,
2013-07-24 18:43:00,87.3,76.5,29.28,SE,135,0.0,0.0,65,0.00,,,0.00,fowsr,2013-07-24 22:43:00,
2013-07-24 18:48:00,87.3,77.3,29.29,SE,135,0.0,0.0,67,0.00,,,0.00,fowsr,2013-07-24 22:48:00,
2013-07-24 18:53:00,87.1,77.1,29.29,North,0,0.0,0.0,67,0.00,,,0.00,fowsr,2013-07-24 22:53:00,
2013-07-24 18:58:00,86.9,76.9,29.29,North,0,0.0,0.0,67,0.00,,,0.00,fowsr,2013-07-24 22:58:00,
2013-07-24 19:03:00,86.9,76.2,29.29,North,0,0.0,0.0,65,0.00,,,0.00,fowsr,2013-07-24 23:03:00,
2013-07-24 19:08:00,86.7,76.0,29.30,West,270,0.0,0.7,65,0.00,,,0.00,fowsr,2013-07-24 23:08:00,
2013-07-24 19:13:00,86.5,74.7,29.30,North,0,0.0,0.7,62,0.00,,,0.00,fowsr,2013-07-24 23:13:00,
2013-07-24 19:18:00,86.4,74.6,29.30,NNE,22,0.0,0.7,62,0.00,,,0.00,fowsr,2013-07-24 23:18:00,
2013-07-24 19:23:00,86.2,74.4,29.30,SW,225,0.0,1.6,62,0.00,,,0.00,fowsr,2013-07-24 23:23:00,
2013-07-24 19:28:00,85.8,74.1,29.32,SE,135,0.0,0.0,62,0.00,,,0.00,fowsr,2013-07-24 23:28:00,
2013-07-24 19:33:00,85.5,73.7,29.31,West,270,0.0,0.0,62,0.00,,,0.00,fowsr,2013-07-24 23:33:00,
2013-07-24 19:38:00,85.1,73.4,29.31,West,270,0.0,0.0,62,0.00,,,0.00,fowsr,2013-07-24 23:38:00,
2013-07-24 19:43:00,84.7,73.8,29.32,West,270,0.0,0.7,64,0.00,,,0.00,fowsr,2013-07-24 23:43:00,
2013-07-24 19:48:00,84.4,73.5,29.32,East,90,0.0,0.0,64,0.00,,,0.00,fowsr,2013-07-24 23:48:00,
2013-07-24 19:53:00,84.2,73.7,29.33,East,90,0.0,0.0,65,0.00,,,0.00,fowsr,2013-07-24 23:53:00,
2013-07-24 19:58:00,83.8,74.8,29.33,East,90,0.0,0.0,69,0.01,,,0.01,fowsr,2013-07-24 23:58:00,
2013-07-24 20:03:00,82.8,75.1,29.33,East,90,0.0,0.0,73,0.01,,,0.01,fowsr,2013-07-25 00:03:00,
2013-07-24 20:08:00,82.0,75.3,29.33,East,90,0.0,0.0,76,0.01,,,0.01,fowsr,2013-07-25 00:08:00,
2013-07-24 20:13:00,81.0,74.9,29.33,East,90,0.0,0.0,78,0.01,,,0.01,fowsr,2013-07-25 00:13:00,
2013-07-24 20:18:00,80.4,75.3,29.34,East,90,0.0,0.0,81,0.01,,,0.01,fowsr,2013-07-25 00:18:00,
2013-07-24 20:23:00,79.7,74.9,29.34,East,90,0.0,0.0,82,0.01,,,0.01,fowsr,2013-07-25 00:23:00,
2013-07-24 20:28:00,79.3,74.6,29.34,SE,135,0.0,0.0,82,0.01,,,0.01,fowsr,2013-07-25 00:28:00,
2013-07-24 20:33:00,79.2,74.4,29.34,SE,135,0.0,0.0,82,0.01,,,0.01,fowsr,2013-07-25 00:33:00,
2013-07-24 20:38:00,79.0,74.2,29.33,SE,135,0.0,0.0,82,0.01,,,0.01,fowsr,2013-07-25 00:38:00,
2013-07-24 20:43:00,78.6,74.4,29.33,SE,135,0.0,0.0,84,0.01,,,0.01,fowsr,2013-07-25 00:43:00,
2013-07-24 20:48:00,78.3,74.6,29.33,SE,135,0.0,0.0,86,0.01,,,0.01,fowsr,2013-07-25 00:48:00,
2013-07-24 20:53:00,78.1,74.7,29.33,SE,135,0.0,0.0,87,0.01,,,0.01,fowsr,2013-07-25 00:53:00,
2013-07-24 20:58:00,78.1,74.7,29.34,SE,135,0.0,0.0,87,0.01,,,0.01,fowsr,2013-07-25 00:58:00,
2013-07-24 21:03:00,77.9,74.8,29.34,SE,135,0.0,0.0,88,0.00,,,0.01,fowsr,2013-07-25 01:03:00,
2013-07-24 21:08:00,77.7,74.7,29.34,SE,135,0.0,0.0,88,0.00,,,0.01,fowsr,2013-07-25 01:08:00,
2013-07-24 21:13:00,77.5,74.7,29.34,SE,135,0.0,0.0,89,0.00,,,0.01,fowsr,2013-07-25 01:13:00,
2013-07-24 21:18:00,77.4,74.8,29.34,SE,135,0.0,0.0,90,0.00,,,0.01,fowsr,2013-07-25 01:18:00,
2013-07-24 21:23:00,77.4,74.8,29.34,SE,135,0.0,0.0,90,0.00,,,0.01,fowsr,2013-07-25 01:23:00,
2013-07-24 21:28:00,77.2,74.7,29.35,SE,135,0.0,0.0,90,0.00,,,0.01,fowsr,2013-07-25 01:28:00,
2013-07-24 21:33:00,77.2,74.7,29.35,SE,135,0.0,0.0,90,0.00,,,0.01,fowsr,2013-07-25 01:33:00,
2013-07-24 21:38:00,77.2,74.9,29.36,SE,135,0.0,0.7,91,0.00,,,0.01,fowsr,2013-07-25 01:38:00,
2013-07-24 21:43:00,77.0,74.5,29.36,SE,135,0.0,0.0,90,0.00,,,0.01,fowsr,2013-07-25 01:43:00,
2013-07-24 21:48:00,77.0,74.5,29.36,SE,135,0.0,0.0,90,0.00,,,0.01,fowsr,2013-07-25 01:48:00,
2013-07-24 21:53:00,77.2,74.4,29.36,SE,135,0.0,0.0,89,0.00,,,0.01,fowsr,2013-07-25 01:53:00,
2013-07-24 21:58:00,77.2,74.1,29.36,SE,135,0.0,0.0,88,0.00,,,0.01,fowsr,2013-07-25 01:58:00,
2013-07-24 22:03:00,77.2,74.1,29.36,SE,135,0.0,0.0,88,0.00,,,0.01,fowsr,2013-07-25 02:03:00,
2013-07-24 22:08:00,77.2,74.4,29.38,SE,135,0.0,0.0,89,0.00,,,0.01,fowsr,2013-07-25 02:08:00,
2013-07-24 22:13:00,77.2,74.4,29.37,SE,135,0.0,0.0,89,0.00,,,0.01,fowsr,2013-07-25 02:13:00,
2013-07-24 22:18:00,77.2,74.4,29.38,SE,135,0.0,0.0,89,0.00,,,0.01,fowsr,2013-07-25 02:18:00,
2013-07-24 22:23:00,77.2,74.4,29.38,SE,135,0.0,0.0,89,0.00,,,0.01,fowsr,2013-07-25 02:23:00,
2013-07-24 22:28:00,76.8,74.6,29.38,North,0,0.0,0.0,91,0.00,,,0.01,fowsr,2013-07-25 02:28:00,
2013-07-24 22:33:00,76.8,74.3,29.38,East,90,0.0,0.0,90,0.00,,,0.01,fowsr,2013-07-25 02:33:00,
2013-07-24 22:38:00,76.8,74.3,29.39,East,90,0.0,0.0,90,0.00,,,0.01,fowsr,2013-07-25 02:38:00,
2013-07-24 22:43:00,76.8,74.0,29.38,East,90,0.0,0.0,89,0.00,,,0.01,fowsr,2013-07-25 02:43:00,
2013-07-24 22:48:00,77.0,73.7,29.38,SE,135,0.0,0.0,87,0.00,,,0.01,fowsr,2013-07-25 02:48:00,
2013-07-24 22:53:00,77.0,73.4,29.38,SE,135,0.0,0.0,86,0.00,,,0.01,fowsr,2013-07-25 02:53:00,
2013-07-24 22:58:00,77.0,73.1,29.38,SE,135,0.0,0.0,85,0.00,,,0.01,fowsr,2013-07-25 02:58:00,
2013-07-24 23:03:00,77.0,73.1,29.39,South,180,0.0,0.7,85,0.00,,,0.01,fowsr,2013-07-25 03:03:00,
2013-07-24 23:09:00,77.0,73.1,29.39,SE,135,0.0,0.7,85,0.00,,,0.01,fowsr,2013-07-25 03:09:00,
2013-07-24 23:18:00,77.0,73.1,29.39,SE,135,0.0,0.0,85,0.00,,,0.01,fowsr,2013-07-25 03:18:00,
2013-07-24 23:24:00,76.6,73.3,29.38,SE,135,0.0,1.6,87,0.00,,,0.01,fowsr,2013-07-25 03:24:00,
2013-07-24 23:33:00,76.6,73.1,29.38,SE,135,0.0,0.0,86,0.00,,,0.01,fowsr,2013-07-25 03:33:00,
2013-07-24 23:38:00,76.3,72.7,29.38,SE,135,0.0,0.7,86,0.00,,,0.01,fowsr,2013-07-25 03:38:00,
2013-07-24 23:43:00,76.3,72.7,29.38,SE,135,0.0,0.0,86,0.00,,,0.01,fowsr,2013-07-25 03:43:00,
2013-07-24 23:48:00,76.1,72.5,29.39,SE,135,0.0,0.0,86,0.00,,,0.01,fowsr,2013-07-25 03:48:00,
2013-07-24 23:53:00,75.7,72.4,29.39,SE,135,0.0,0.0,87,0.00,,,0.01,fowsr,2013-07-25 03:53:00,
2013-07-24 23:59:00,75.6,72.5,29.39,SE,135,0.0,0.0,88,0.00,,,0.01,fowsr,2013-07-25 03:59:00,